COSMOS 2041

Satellite information

Favourite Embed

Satellite Type and Status

PAYLOADIN ORBIT

Key statistics

Satellite COSMOS 2041 at a glance.

Uptime

13193

Days in orbit

Revolutions

≈ 12.6

Per day

Orbit

LEO

Low Earth Orbit

Inclination

82.6

Latest

Satellite identification and parameters

Extended collection of information and parameters for COSMOS 2041.

Object identification

Identified? True

Debris? False

Object name: COSMOS 2041

International designator: 1989-074D

Object number (NORAD): 20235

Object ID (CCSDS): 20235

Country: COMMONWEALTH OF INDEPENDENT STATES (CIS)

Current information (Y/N): Y

RCS size: LARGE

Orbital parameters

Period: 113.848 minutes

Inclination: 82.5876 deg

SMA: 7781.172 km

Apoapsis: 1408.691 km

Periapsis: 1397.383 km

RAAN: 358.616 deg

Eccentricy: 0.00072667

Argument of periapsis: 263.3107 deg

Mean anomaly: 269.2665 deg

Mean motion: 12.64838971 rev/day

Mean motion (dot): 0.00000019 rev/day2

B* drag term: 0.000043210462 1/REarth

Two-line elements (TLE)

Creation date: Oct. 28, 2025, 2:18 a.m.

Reference frame: TEME

Reference center: EARTH

Epoch: Oct. 27, 2025, 4:09 p.m. UTC

TLE line 0: 0 COSMOS 2041

TLE line 1: 1 20235U 89074D 25300.67295919 .00000019 00000-0 43210-4 0 9992

TLE line 2: 2 20235 82.5876 358.6160 0007267 263.3107 269.2665 12.64838971667119

Live tracking on map

Real-time ground track for satellite COSMOS 2041.

In-orbit conjunctions

A list of the most updated potential collisions computed for object COSMOS 2041.

Target Orbit TCA Probability of collision Miss distance Type
DELTA 1 DEB SSO 2024-07-13 14:34:02 0.0002003741 343.0 (m) DEBRIS

Associated space launch

Second generation store-dump military communications satellite

COSMOS 2041 was lifted into orbit during the mission ‘Tsiklon-3 | Strela-3 43 to 48’, on board a Tsiklon-3 space rocket.

The launch took place on Sept. 14, 1989, 9:49 a.m. from 32/1.

For more information about the launch, click the button.

Launch to space Tsiklon-3 | Strela-3 43 to 48
Tsiklon-3 | Strela-3 43 to 48

Agency: N/A

Status: Launch Successful

Launch date: Sept. 14, 1989, 9:49 a.m. UTC

Rocket: Tsiklon-3

Launch pad: 32/1

Location: Plesetsk Cosmodrome, Russian Federation

...

Latest news about this satellite

There are no fresh news available about this satellite. Check back as we update our databases every day.


Newsletter sign-up

Weekly statistics, charts and insights to help you stay on top of the space industry.